Regional Weather Roundup
Issued by NWS

Home | Current Version | Previous Version | Graphics & Text | Print | Product List | Glossary On
Versions: 1 2 3 4 5 6 7 8 9 10 11 12 13 14 15 16 17 18 19 20 21 22 23 24 25 26 27 28 29 30 31 32 33 34 35 36 37 38 39 40 41 42 43 44 45 46 47 48 49 50
000
ASUS45 KABQ 302210
RWRNM
WEATHER ROUNDUP FOR NEW MEXICO
NATIONAL WEATHER SERVICE ALBUQUERQUE NM
400 PM MDT TUE SEP 30 2014

NOTE: "FAIR" MEANS FEW OR NO CLOUDS BELOW 12,000 FEET AGL WITH NO
       SIGNIFICANT WEATHER OR OBSTRUCTIONS TO VISION.

      THIS PRODUCT IS RELEASED AS TWO VERSIONS.  ONE VERSION NEAR
      THE TOP OF THE HOUR CONTAINING PRELIMINARY DATA FROM ALBUQUERQUE
      AND OTHER STATIONS.  A FINAL VERSION WITH ADDITIONAL DATA IS
      ISSUED ABOUT 10 MINUTES AFTER THE HOUR.

NMZ501-503-504-510>518-302300-
NORTHWEST PLATEAU/NORTHCENTRAL MOUNTAINS

CITY           SKY/WX    TMP DP  RH WIND       PRES   REMARKS
FARMINGTON     MOSUNNY   69  34  27 NW12G21   29.96F
LOS ALAMOS     SUNNY     63  32  31 CALM      30.01S
SANTA FE       SUNNY     71  28  20 W20G31    29.93F
TAOS           MOSUNNY   64  32  29 W13G21    30.00S
ANGEL FIRE     FAIR      57  31  36 W14G29    30.03F

$$
NMZ402-403-502-505>509-302300-
WESTCENTRAL MOUNTAINS/SOUTHWEST MOUNTAINS

CITY           SKY/WX    TMP DP  RH WIND       PRES   REMARKS
GALLUP         SUNNY     68  34  28 W13       30.02F
GRANTS         SUNNY     70  30  23 NW6       30.01S
SILVER CITY    SUNNY     75  27  16 W16       29.99F

$$
NMZ407-409-411-412-302300-
SOUTHERN DESERTS

CITY           SKY/WX    TMP DP  RH WIND       PRES   REMARKS
LORDSBURG      FAIR      81  36  19 MISG      29.91F
DEMING         SUNNY     81  38  21 W16       29.90F
LAS CRUCES     SUNNY     82  33  17 W23       29.91F
HOLLOMAN AFB   MOSUNNY   82  37  19 VRB5      29.86F
ALAMOGORDO     MOSUNNY   81  36  19 W8        29.89S
T OR C         SUNNY     80  33  18 S7        29.88F

$$
NMZ519>523-302300-
CENTRAL VALLEYS/CENTRAL HIGHLANDS

CITY           SKY/WX    TMP DP  RH WIND       PRES   REMARKS
ALBUQUERQUE    MOSUNNY   73  31  21 SW5       29.92F
DOUBLE EAGLE   MOSUNNY   72  32  23 NW5       29.96F
MORIARTY ARPT  FAIR      70  30  22 W14G22    29.98S
CLINES CORNERS SUNNY     67  30  25 W22G31    29.98F
BELEN          FAIR      74  34  22 E5        29.91F
SOCORRO        FAIR      76  35  22 SE9       29.90F

$$
NMZ524>526-539-540-302300-
SOUTHCENTRAL MOUNTAINS

CITY           SKY/WX    TMP DP  RH WIND       PRES   REMARKS
RUIDOSO        NOT AVBL

$$
NMZ527>531-302300-
NORTHEAST HIGHLANDS/NORTHEAST PLAINS

CITY           SKY/WX    TMP DP  RH WIND       PRES   REMARKS
LAS VEGAS      SUNNY     70  32  24 S6G26     29.91S
RATON          SUNNY     73  32  22 SW18G24   29.84F
CLAYTON        SUNNY     75  35  23 S9        29.81F

$$
NMZ532>537-302300-
EASTCENTRAL PLAINS

CITY           SKY/WX    TMP DP  RH WIND       PRES   REMARKS
TUCUMCARI      SUNNY     82  35  18 SW18G25   29.78F
CANNON AFB     SUNNY     80  40  23 W21       29.84F
CLOVIS AIRPORT   N/A     81  41  24 SW14G23   29.86S

$$
NMZ028-029-538-302300-
SOUTHEAST PLAINS

CITY           SKY/WX    TMP DP  RH WIND       PRES   REMARKS
ROSWELL        SUNNY     82  49  31 SE6       29.81F
CARLSBAD       SUNNY     88  47  24 SW15      29.78F
HOBBS          SUNNY     82  55  39 SW13G22   29.83F


$$



USA.gov is the U.S. government's official web portal to all federal, state and local government web resources and services.